Zurück zum Katalog

STARLINK-5445

AktivKommunikationVLEO
NORAD 54790·PAYLOAD·🇺🇸 United States

Gestartet Dec 17, 2022 von Cape Canaveral Space Force Station

Loading…

Nächste Überflüge (nächste 24 Stunden)

TLE

AktuellSource: CelesTrak SupGP

Epoche: Sep 14, 2026, 14:43 UTC

1 54790C 22175AJ  26257.61368056 -.00032460  00000+0 -95852-3 0  2574
2 54790  53.1573 247.2185 0000957  78.3518  88.3428 15.34424010    11

Verfolge STARLINK-5445 in Echtzeit mit AllMySat

Download on the App Store